Weather History for Metropolis, IL

Change the Weather History Date:

Thursday, October 27, 2011

  Actual Average (KPAH) Record (KPAH)
Temperature  
Mean Temperature 50 °F 56 °F  
Max Temperature 51 °F 67 °F 88 °F (1940)
Min Temperature 48 °F 44 °F 28 °F (1957)
Degree Days  
Heating Degree Days 16 10  
Month to date heating degree days 185  
Since 1 July heating degree days 224  
Cooling Degree Days 0 1  
Month to date cooling degree days 38  
Year to date cooling degree days 1538  
Moisture  
Dew Point 45 °F    
Average Humidity 83    
Maximum Humidity 100    
Minimum Humidity 67    
Precipitation  
Precipitation 0.32 in 0.13 in 2.85 in (1947)
Month to date precipitation 3.48  
Year to date precipitation 39.71  
Snow  
Snow 0.00 in 0.00 in - ()
Month to date snowfall 0.1  
Since 1 July snowfall 0.1  
Since 1 September snowfall 0.1  
Snow Depth -    
Sea Level Pressure  
Sea Level Pressure 30.00 in    
Wind  
Wind Speed 7 mph (North)    
Max Wind Speed 14 mph    
Max Gust Speed 20 mph    
Visibility 8 miles    
Events Rain , Thunderstorm    
T = Trace of Precipitation, MM = Missing Value Source: NWS Daily Summary

Daily Weather History Graph

Daily Weather History Graph

Search for Another Location

Airport:

Trip Planner

Search our weather history database for the weather conditions in past years. The results will help you decide how hot, cold, wet, or windy it might be!

Date:

Astronomy

Oct. 27, 2011 Rise Set
Actual Time 7:14 AM CDT 6:03 PM CDT
Civil Twilight 6:47 AM CDT 6:29 PM CDT
Nautical Twilight 6:16 AM CDT 7:00 PM CDT
Astronomical Twilight 5:46 AM CDT 7:30 PM CDT
Moon 8:14 AM CDT (10/27) 6:35 PM CDT (10/27)
Length of Visible Light 11h 42m
Length of Day
10h 49m
New Moon, 1% of the Moon is Illuminated
Oct 27
New Moon
Nov 2
First Quarter
Nov 10
Full
Nov 18
Last Quarter
Nov 25
New

Hourly Weather History & Observations

Time (CDT) Temp. Windchill Dew Point Humidity Pressure Visibility Wind Dir Wind Speed Gust Speed Precip Events Conditions
12:15 AM 51.8 °F - 51.8 °F 100% 29.89 in 5.0 mi NW 6.9 mph - 0.03 in Rain Heavy Rain
12:35 AM 51.8 °F - 50.0 °F 94% 29.89 in 7.0 mi North 6.9 mph - 0.05 in Rain , Thunderstorm Light Thunderstorms and Rain
12:55 AM 51.8 °F - 50.0 °F 94% 29.88 in 4.0 mi North 6.9 mph - 0.15 in Rain Heavy Rain
1:15 AM 50.0 °F - 50.0 °F 100% 29.88 in 5.0 mi North 5.8 mph - 0.10 in Rain Light Rain
1:35 AM 50.0 °F - 50.0 °F 100% 29.89 in 10.0 mi NNW 6.9 mph - 0.11 in Rain Rain
1:55 AM 50.0 °F - 50.0 °F 100% 29.90 in 5.0 mi Calm Calm - 0.16 in Rain Light Rain
3:15 AM 50.0 °F - 50.0 °F 100% 29.88 in 10.0 mi North 5.8 mph - N/A   Overcast
3:35 AM 50.0 °F - 50.0 °F 100% 29.90 in 10.0 mi WNW 4.6 mph - N/A   Overcast
3:55 AM 50.0 °F - 50.0 °F 100% 29.91 in 10.0 mi NNW 4.6 mph - 0.01 in Rain Light Rain
4:15 AM 50.0 °F - 48.2 °F 94% 29.89 in 10.0 mi North 9.2 mph - N/A   Overcast
4:35 AM 50.0 °F - 48.2 °F 94% 29.91 in 3.0 mi NNW 8.1 mph - N/A   Overcast
4:55 AM 50.0 °F - 48.2 °F 94% 29.91 in 5.0 mi North 5.8 mph - N/A   Overcast
5:15 AM 50.0 °F - 46.4 °F 87% 29.92 in 7.0 mi NNW 10.4 mph - N/A   Overcast
5:35 AM 50.0 °F - 46.4 °F 87% 29.93 in 7.0 mi NNW 8.1 mph - N/A   Overcast
5:55 AM 50.0 °F - 46.4 °F 87% 29.93 in 7.0 mi NNW 8.1 mph - N/A   Overcast
6:15 AM 50.0 °F - 46.4 °F 87% 29.93 in 7.0 mi NNW 9.2 mph - N/A   Overcast
6:35 AM 48.2 °F - 46.4 °F 93% 29.95 in 2.5 mi NW 10.4 mph - N/A Rain Light Rain
6:55 AM 48.2 °F - 46.4 °F 93% 29.95 in 3.0 mi NNW 9.2 mph - N/A   Overcast
7:15 AM 48.2 °F - 46.4 °F 93% 29.96 in 3.0 mi NNW 8.1 mph - N/A   Overcast
7:35 AM 48.2 °F - 46.4 °F 93% 29.96 in 3.0 mi North 8.1 mph - N/A   Overcast
7:55 AM 48.2 °F - 46.4 °F 93% 29.98 in 4.0 mi NNW 11.5 mph - N/A   Overcast
8:15 AM 48.2 °F - 46.4 °F 93% 29.98 in 4.0 mi NNW 9.2 mph - N/A   Overcast
8:35 AM 48.2 °F - 44.6 °F 87% 29.99 in 4.0 mi NNW 9.2 mph 17.3 mph N/A   Overcast
8:55 AM 48.2 °F - 46.4 °F 93% 29.99 in 5.0 mi North 13.8 mph 17.3 mph N/A   Overcast
9:15 AM 50.0 °F - 44.6 °F 82% 29.98 in 5.0 mi North 9.2 mph - N/A   Overcast
9:35 AM 50.0 °F - 44.6 °F 82% 29.99 in 7.0 mi NNW 10.4 mph 19.6 mph N/A   Overcast
9:55 AM 50.0 °F - 44.6 °F 82% 29.99 in 7.0 mi North 10.4 mph 16.1 mph N/A   Overcast
10:15 AM 50.0 °F - 44.6 °F 82% 30.00 in 10.0 mi North 9.2 mph - N/A   Overcast
10:35 AM 50.0 °F - 44.6 °F 82% 30.01 in 10.0 mi North 10.4 mph 16.1 mph N/A   Overcast
10:55 AM 50.0 °F - 44.6 °F 82% 30.03 in 10.0 mi NNW 10.4 mph - N/A   Overcast
11:15 AM 50.0 °F - 44.6 °F 82% 30.05 in 10.0 mi NNW 11.5 mph 16.1 mph N/A   Overcast
11:35 AM 50.0 °F - 42.8 °F 76% 30.05 in 10.0 mi NNW 10.4 mph 16.1 mph N/A   Overcast
11:55 AM 51.8 °F - 42.8 °F 71% 30.06 in 10.0 mi NNW 6.9 mph - N/A   Overcast
12:15 PM 51.8 °F - 42.8 °F 71% 30.04 in 10.0 mi NNW 8.1 mph - N/A   Overcast
12:35 PM 51.8 °F - 41.0 °F 67% 30.03 in 10.0 mi North 12.7 mph 17.3 mph N/A   Mostly Cloudy
12:55 PM 51.8 °F - 41.0 °F 67% 30.01 in 10.0 mi North 8.1 mph 16.1 mph N/A   Mostly Cloudy
1:35 PM 50.0 °F - 41.0 °F 71% 30.03 in 10.0 mi North 6.9 mph - N/A Rain Light Rain
1:55 PM 50.0 °F - 42.8 °F 76% 30.03 in 10.0 mi NNW 4.6 mph - N/A Rain Light Rain
2:15 PM 50.0 °F - 42.8 °F 76% 30.03 in 10.0 mi North 5.8 mph - N/A Rain Light Rain
2:55 PM 50.0 °F - 42.8 °F 76% 30.03 in 10.0 mi North 9.2 mph - N/A   Overcast
3:15 PM 50.0 °F - 42.8 °F 76% 30.03 in 10.0 mi North 6.9 mph - N/A   Overcast
3:35 PM 50.0 °F - 42.8 °F 76% 30.02 in 10.0 mi North 5.8 mph - N/A   Overcast
3:55 PM 51.8 °F - 42.8 °F 71% 30.03 in 10.0 mi North 5.8 mph - N/A   Mostly Cloudy
4:15 PM 51.8 °F - 42.8 °F 71% 30.04 in 10.0 mi North 6.9 mph - N/A   Overcast
4:35 PM 51.8 °F - 41.0 °F 67% 30.05 in 10.0 mi North 5.8 mph - N/A   Overcast
4:55 PM 50.0 °F - 41.0 °F 71% 30.05 in 10.0 mi NE 3.5 mph - N/A   Mostly Cloudy
5:15 PM 50.0 °F - 41.0 °F 71% 30.06 in 10.0 mi Calm Calm - N/A   Scattered Clouds
5:35 PM 50.0 °F - 41.0 °F 71% 30.07 in 10.0 mi Calm Calm - N/A   Clear
5:55 PM 50.0 °F - 42.8 °F 76% 30.07 in 10.0 mi Calm Calm - N/A   Clear
6:15 PM 50.0 °F - 42.8 °F 76% 30.09 in 10.0 mi Calm Calm - N/A   Scattered Clouds
6:35 PM 50.0 °F - 42.8 °F 76% 30.09 in 10.0 mi Calm Calm - N/A   Scattered Clouds
6:55 PM 50.0 °F - 41.0 °F 71% 30.10 in 10.0 mi Calm Calm - N/A   Clear
7:15 PM 50.0 °F - 41.0 °F 71% 30.11 in 10.0 mi Calm Calm - N/A   Clear
7:35 PM 50.0 °F - 41.0 °F 71% 30.11 in 10.0 mi Calm Calm - N/A   Scattered Clouds
7:55 PM 50.0 °F - 41.0 °F 71% 30.12 in 10.0 mi Calm Calm - N/A   Scattered Clouds
8:15 PM 48.2 °F - 41.0 °F 76% 30.12 in 10.0 mi Calm Calm - N/A   Scattered Clouds
8:35 PM 48.2 °F - 41.0 °F 76% 30.11 in 10.0 mi Calm Calm - N/A   Scattered Clouds
9:15 PM 48.2 °F - 41.0 °F 76% 30.12 in 10.0 mi NNE 4.6 mph - N/A   Scattered Clouds
9:35 PM 48.2 °F - 41.0 °F 76% 30.12 in 10.0 mi NNE 3.5 mph - N/A   Clear
9:55 PM 48.2 °F - 41.0 °F 76% 30.13 in 10.0 mi NNE 3.5 mph - N/A   Scattered Clouds
10:15 PM 48.2 °F - 41.0 °F 76% 30.13 in 10.0 mi Calm Calm - N/A   Mostly Cloudy
10:35 PM 48.2 °F - 41.0 °F 76% 30.12 in 10.0 mi Calm Calm - N/A   Overcast
10:55 PM 48.2 °F - 41.0 °F 76% 30.13 in 10.0 mi Calm Calm - N/A   Overcast
11:15 PM 48.2 °F - 41.0 °F 76% 30.13 in 10.0 mi Calm Calm - N/A   Overcast
11:35 PM 46.4 °F 45.2 °F 41.0 °F 81% 30.11 in 10.0 mi NNE 3.5 mph - N/A   Overcast
11:55 PM 46.4 °F 45.2 °F 41.0 °F 81% 30.11 in 10.0 mi North 3.5 mph - N/A   Overcast